This is the latest recevied weather packets stored in our database for station/object KC1DMA. If no packets are shown the sender has not sent any weather packets the latest 10 day(s).
| Time | Temp. | Humidity | Pressure | Rain* | Wind** | Luminosity | Snow |
|---|---|---|---|---|---|---|---|
| 1777745415 | 8.89° C | 86% | 1013.3 hPa | - | - | 122 W/m² | - |
| 1777745111 | 8.89° C | 85% | 1013.3 hPa | - | - | 88 W/m² | - |
| 1777744808 | 9.44° C | 84% | 1013 hPa | - | - | 109 W/m² | - |
| 1777744501 | 9.44° C | 85% | 1012.9 hPa | - | - | 248 W/m² | - |
| 1777744198 | 9.44° C | 85% | 1013.1 hPa | - | - | 151 W/m² | - |
| 1777743895 | 10° C | 83% | 1012.9 hPa | - | - | 116 W/m² | - |
| 1777743592 | 11.11° C | 79% | 1012.8 hPa | - | - | 64 W/m² | - |
| 1777743289 | 11.67° C | 76% | 1012.7 hPa | - | - | 140 W/m² | - |
| 1777742987 | 11.67° C | 77% | 1012.8 hPa | - | - | 213 W/m² | - |
| 1777742684 | 11.67° C | 77% | 1012.8 hPa | - | - | 257 W/m² | - |
| 1777742380 | 11.67° C | 79% | 1012.9 hPa | - | - | 158 W/m² | - |
| 1777742076 | 11.67° C | 79% | 1012.6 hPa | - | - | 154 W/m² | - |
| 1777741774 | 11.67° C | 80% | 1012.8 hPa | - | - | 132 W/m² | - |
| 1777741470 | 11.11° C | 79% | 1012.8 hPa | - | - | 127 W/m² | - |
| 1777741166 | 11.11° C | 79% | 1012.7 hPa | - | - | 105 W/m² | - |
| 1777740864 | 11.11° C | 80% | 1012.7 hPa | - | - | 98 W/m² | - |
| 1777740560 | 11.11° C | 79% | 1012.7 hPa | - | - | 63 W/m² | - |
| 1777740257 | 11.11° C | 78% | 1012.8 hPa | - | - | 55 W/m² | - |
| 1777739953 | 11.11° C | 77% | 1012.9 hPa | - | - | 56 W/m² | - |
| 1777739649 | 11.11° C | 77% | 1012.9 hPa | - | - | 42 W/m² | - |
| 1777739348 | 11.11° C | 76% | 1012.9 hPa | - | - | 37 W/m² | - |
| 1777739044 | 11.67° C | 75% | 1013 hPa | - | - | 33 W/m² | - |
| 1777738741 | 11.67° C | 76% | 1012.9 hPa | - | - | 40 W/m² | - |
| 1777738437 | 11.67° C | 75% | 1012.9 hPa | - | - | 35 W/m² | - |
| 1777738135 | 11.67° C | 76% | 1012.9 hPa | - | - | 36 W/m² | - |
* Rain since midnight (hover to see other rain measurements)
** Current wind speed in m/s (hover to see current wind gust speed)